AFR98TK LFPG-EGNT

Flight info

Callsign AFR98TK
Flight time 1h 22m
Altitude 40000
Route ATREX DCT VESAN DCT RATUK DCT SOVAT L613 MAMUL UY250 RIMTO
Aircraft E190/M-SDE3GILORVW/S

Departure

Time 2026-05-08 12:55
Airport Charles de Gaulle International Airport (LFPG)

Arrival

Time 2026-05-08 14:17
Airport Newcastle International Airport (EGNT)
Time Latitude Longitude Altitude Speed Heading
2026-05-08 11:54 49.00459 2.60279 333 ft 0 kts 85°
2026-05-08 12:37 49.00459 2.60260 333 ft 4 kts 91°
2026-05-08 12:37 49.00463 2.60221 330 ft 4 kts 120°
2026-05-08 12:37 49.00478 2.60194 329 ft 3 kts 149°
2026-05-08 12:38 49.00458 2.60201 329 ft 4 kts 174°
2026-05-08 12:38 49.00432 2.60203 313 ft 3 kts 175°
2026-05-08 12:38 49.00429 2.60204 315 ft 0 kts 174°
2026-05-08 12:42 49.00428 2.60204 317 ft 1 kts 174°
2026-05-08 12:42 49.00396 2.60207 333 ft 8 kts 176°
2026-05-08 12:42 49.00345 2.60148 332 ft 12 kts 260°
2026-05-08 12:42 49.00337 2.60012 329 ft 14 kts 265°
2026-05-08 12:43 49.00328 2.59855 333 ft 16 kts 265°
2026-05-08 12:43 49.00318 2.59679 330 ft 18 kts 265°
2026-05-08 12:43 49.00221 2.59626 332 ft 17 kts 187°
2026-05-08 12:43 49.00150 2.59503 331 ft 16 kts 201°
2026-05-08 12:44 49.00074 2.59416 329 ft 17 kts 259°
2026-05-08 12:44 49.00065 2.59227 327 ft 18 kts 265°
2026-05-08 12:44 49.00054 2.59026 330 ft 20 kts 266°
2026-05-08 12:44 49.00051 2.58964 330 ft 0 kts 266°
2026-05-08 12:45 49.00050 2.58952 330 ft 2 kts 266°
2026-05-08 12:45 49.00048 2.58919 329 ft 4 kts 264°
2026-05-08 12:45 49.00045 2.58863 329 ft 7 kts 265°
2026-05-08 12:46 49.00039 2.58756 330 ft 13 kts 265°
2026-05-08 12:46 49.00030 2.58585 329 ft 19 kts 265°
2026-05-08 12:46 49.00018 2.58374 331 ft 20 kts 265°
2026-05-08 12:46 49.00007 2.58155 332 ft 21 kts 265°
2026-05-08 12:47 48.99994 2.57925 332 ft 22 kts 265°
2026-05-08 12:47 48.99982 2.57690 333 ft 23 kts 265°
2026-05-08 12:47 48.99969 2.57444 335 ft 24 kts 264°
2026-05-08 12:47 48.99955 2.57195 337 ft 19 kts 264°
2026-05-08 12:48 48.99944 2.56980 335 ft 21 kts 265°
2026-05-08 12:48 48.99934 2.56797 337 ft 16 kts 264°
2026-05-08 12:48 48.99924 2.56623 337 ft 18 kts 264°
2026-05-08 12:48 48.99914 2.56426 336 ft 20 kts 266°
2026-05-08 12:49 48.99905 2.56269 337 ft 14 kts 265°
2026-05-08 12:49 48.99896 2.56105 336 ft 15 kts 265°
2026-05-08 12:49 48.99892 2.55978 335 ft 13 kts 273°
2026-05-08 12:49 48.99896 2.55819 332 ft 15 kts 234°
2026-05-08 12:50 48.99811 2.55801 332 ft 15 kts 174°
2026-05-08 12:50 48.99756 2.55809 326 ft 0 kts 174°
2026-05-08 12:51 48.99744 2.55810 327 ft 4 kts 176°
2026-05-08 12:52 48.99705 2.55814 329 ft 0 kts 176°
2026-05-08 12:52 48.99700 2.55814 329 ft 2 kts 176°
2026-05-08 12:52 48.99676 2.55816 329 ft 5 kts 176°
2026-05-08 12:53 48.99639 2.55822 333 ft 6 kts 168°
2026-05-08 12:53 48.99609 2.55888 333 ft 10 kts 98°
2026-05-08 12:53 48.99611 2.55978 334 ft 0 kts 86°
2026-05-08 12:53 48.99611 2.55985 335 ft 3 kts 87°
2026-05-08 12:54 48.99626 2.56292 334 ft 65 kts 85°
2026-05-08 12:54 48.99682 2.57348 330 ft 134 kts 85°
2026-05-08 12:54 48.99777 2.58998 590 ft 172 kts 85°
2026-05-08 12:54 48.99856 2.60899 954 ft 183 kts 86°
2026-05-08 12:55 48.99926 2.62864 646 ft 183 kts 86°
2026-05-08 12:55 48.99986 2.64604 1002 ft 158 kts 86°
2026-05-08 12:55 49.00036 2.66256 1083 ft 145 kts 86°
2026-05-08 12:55 49.00118 2.67946 1242 ft 172 kts 84°
2026-05-08 12:56 49.00234 2.69761 1961 ft 174 kts 84°
2026-05-08 12:56 49.00366 2.71655 2663 ft 185 kts 84°
2026-05-08 12:56 49.00466 2.73686 3355 ft 200 kts 86°
2026-05-08 12:56 49.00592 2.75864 4078 ft 215 kts 83°
2026-05-08 12:57 49.01071 2.78077 4808 ft 229 kts 58°
2026-05-08 12:57 49.02233 2.79810 5527 ft 241 kts 31°
2026-05-08 12:57 49.03840 2.80697 6257 ft 253 kts
2026-05-08 12:57 49.05606 2.80528 6977 ft 260 kts 346°
2026-05-08 12:58 49.07361 2.79736 7662 ft 266 kts 341°
2026-05-08 12:58 49.09131 2.78814 8374 ft 272 kts 340°
2026-05-08 12:58 49.10934 2.77857 9108 ft 278 kts 340°
2026-05-08 12:58 49.12808 2.76894 9434 ft 288 kts 340°
2026-05-08 12:59 49.14697 2.75872 9698 ft 288 kts 339°
2026-05-08 12:59 49.16597 2.74802 10008 ft 289 kts 338°
2026-05-08 12:59 49.18498 2.73727 10187 ft 304 kts 338°
2026-05-08 12:59 49.20544 2.72519 10227 ft 322 kts 337°
2026-05-08 13:00 49.22657 2.71232 10238 ft 331 kts 337°
2026-05-08 13:00 49.24808 2.69911 10212 ft 335 kts 337°
2026-05-08 13:00 49.26969 2.68578 10176 ft 335 kts 337°
2026-05-08 13:00 49.29129 2.67248 10174 ft 336 kts 337°
2026-05-08 13:01 49.31294 2.65930 10367 ft 329 kts 337°
2026-05-08 13:01 49.33449 2.64653 10954 ft 336 kts 338°
2026-05-08 13:01 49.35663 2.63424 11576 ft 342 kts 339°
2026-05-08 13:01 49.37914 2.62181 12196 ft 346 kts 339°
2026-05-08 13:02 49.40183 2.60893 12806 ft 349 kts 338°
2026-05-08 13:02 49.42478 2.59574 13439 ft 355 kts 338°
2026-05-08 13:02 49.44795 2.58218 14062 ft 359 kts 338°
2026-05-08 13:02 49.47130 2.56835 14652 ft 360 kts 337°
2026-05-08 13:03 49.49348 2.55044 15231 ft 362 kts 326°
2026-05-08 13:03 49.51575 2.53096 15832 ft 366 kts 332°
2026-05-08 13:03 49.53884 2.51541 16451 ft 369 kts 338°
2026-05-08 13:03 49.56349 2.50267 17083 ft 372 kts 340°
2026-05-08 13:04 49.58788 2.48930 17704 ft 376 kts 337°
2026-05-08 13:04 49.61171 2.47513 18359 ft 379 kts 337°
2026-05-08 13:04 49.63706 2.46012 18947 ft 382 kts 337°
2026-05-08 13:04 49.66163 2.44571 20080 ft 361 kts 338°
2026-05-08 13:05 49.68545 2.43186 20967 ft 364 kts 338°
2026-05-08 13:05 49.70905 2.41813 21534 ft 369 kts 338°
2026-05-08 13:05 49.73317 2.40407 22164 ft 372 kts 338°
2026-05-08 13:05 49.75746 2.38991 22822 ft 374 kts 338°
2026-05-08 13:06 49.78196 2.37561 23484 ft 377 kts 338°
2026-05-08 13:06 49.80660 2.36124 24063 ft 380 kts 338°
2026-05-08 13:06 49.83173 2.34654 24650 ft 382 kts 338°
2026-05-08 13:06 49.85665 2.33196 25248 ft 384 kts 338°
2026-05-08 13:07 49.88164 2.31731 25846 ft 384 kts 338°
2026-05-08 13:07 49.90678 2.30256 26365 ft 387 kts 338°
2026-05-08 13:07 49.93209 2.28770 26873 ft 390 kts 338°
2026-05-08 13:07 49.95749 2.27277 27409 ft 391 kts 338°
2026-05-08 13:08 49.98299 2.25775 27903 ft 392 kts 338°
2026-05-08 13:08 50.00856 2.24267 28382 ft 395 kts 338°
2026-05-08 13:08 50.03427 2.22751 28887 ft 396 kts 337°
2026-05-08 13:08 50.06003 2.21230 29409 ft 396 kts 338°
2026-05-08 13:09 50.08587 2.19701 29921 ft 397 kts 338°
2026-05-08 13:09 50.11169 2.18172 30379 ft 397 kts 338°
2026-05-08 13:09 50.13747 2.16644 30827 ft 397 kts 338°
2026-05-08 13:09 50.16325 2.15114 31277 ft 395 kts 338°
2026-05-08 13:10 50.18890 2.13590 31721 ft 394 kts 337°
2026-05-08 13:10 50.21442 2.12069 32182 ft 392 kts 338°
2026-05-08 13:10 50.23980 2.10557 32666 ft 389 kts 338°
2026-05-08 13:10 50.26501 2.09054 33133 ft 385 kts 338°
2026-05-08 13:11 50.28996 2.07565 33609 ft 383 kts 337°
2026-05-08 13:11 50.31467 2.06090 34116 ft 378 kts 337°
2026-05-08 13:11 50.33910 2.04627 34521 ft 374 kts 337°
2026-05-08 13:11 50.36315 2.03134 34937 ft 369 kts 333°
2026-05-08 13:12 50.38464 2.01041 35363 ft 361 kts 319°
2026-05-08 13:12 50.39733 1.99372 35648 ft 357 kts 318°
2026-05-08 13:12 50.41593 1.96842 36103 ft 351 kts 317°
2026-05-08 13:12 50.43416 1.94349 36537 ft 344 kts 317°
2026-05-08 13:13 50.45196 1.91892 36980 ft 337 kts 316°
2026-05-08 13:13 50.46935 1.89492 37420 ft 329 kts 316°
2026-05-08 13:13 50.48630 1.87154 37861 ft 320 kts 316°
2026-05-08 13:13 50.50273 1.84885 38290 ft 309 kts 315°
2026-05-08 13:14 50.51855 1.82702 38693 ft 297 kts 315°
2026-05-08 13:14 50.53366 1.80615 38984 ft 282 kts 315°
2026-05-08 13:14 50.54799 1.78639 39163 ft 268 kts 314°
2026-05-08 13:14 50.56193 1.76708 38982 ft 269 kts 315°
2026-05-08 13:15 50.57630 1.74718 38509 ft 281 kts 315°
2026-05-08 13:15 50.59113 1.72673 38272 ft 282 kts 315°
2026-05-08 13:15 50.60555 1.70682 38470 ft 268 kts 315°
2026-05-08 13:15 50.61932 1.68774 38501 ft 261 kts 315°
2026-05-08 13:16 50.63313 1.66853 38090 ft 270 kts 315°
2026-05-08 13:16 50.64744 1.64864 37728 ft 276 kts 316°
2026-05-08 13:16 50.66178 1.62875 37713 ft 273 kts 316°
2026-05-08 13:16 50.67602 1.60922 37704 ft 270 kts 316°
2026-05-08 13:17 50.69010 1.58989 37682 ft 267 kts 316°
2026-05-08 13:17 50.70400 1.57081 37644 ft 263 kts 316°
2026-05-08 13:17 50.71766 1.55200 37576 ft 260 kts 316°
2026-05-08 13:17 50.73127 1.53325 37396 ft 260 kts 316°
2026-05-08 13:18 50.74492 1.51442 37222 ft 261 kts 316°
2026-05-08 13:18 50.75855 1.49563 37139 ft 258 kts 316°
2026-05-08 13:18 50.77199 1.47709 37088 ft 255 kts 316°
2026-05-08 13:18 50.78529 1.45870 36974 ft 254 kts 316°
2026-05-08 13:19 50.79856 1.44021 36819 ft 255 kts 316°
2026-05-08 13:19 50.81202 1.42146 36721 ft 253 kts 316°
2026-05-08 13:19 50.82516 1.40317 36676 ft 250 kts 316°
2026-05-08 13:19 50.83817 1.38501 36592 ft 249 kts 316°
2026-05-08 13:20 50.85115 1.36690 36459 ft 249 kts 316°
2026-05-08 13:20 50.86430 1.34852 36346 ft 248 kts 317°
2026-05-08 13:20 50.87718 1.33054 36302 ft 245 kts 317°
2026-05-08 13:20 50.88988 1.31276 36239 ft 244 kts 317°
2026-05-08 13:21 50.90257 1.29500 36130 ft 244 kts 317°
2026-05-08 13:21 50.91527 1.27721 36024 ft 243 kts 317°
2026-05-08 13:21 50.92790 1.25951 35973 ft 241 kts 317°
2026-05-08 13:21 50.94039 1.24197 35916 ft 239 kts 317°
2026-05-08 13:22 50.95284 1.22449 35819 ft 239 kts 317°
2026-05-08 13:22 50.96528 1.20701 35723 ft 239 kts 317°
2026-05-08 13:22 50.97766 1.18960 35666 ft 237 kts 317°
2026-05-08 13:22 50.98979 1.17253 35627 ft 235 kts 317°
2026-05-08 13:23 51.00200 1.15534 35552 ft 234 kts 317°
2026-05-08 13:23 51.01419 1.13816 35461 ft 234 kts 317°
2026-05-08 13:23 51.02634 1.12102 35404 ft 233 kts 317°
2026-05-08 13:23 51.03817 1.10432 35363 ft 231 kts 317°
2026-05-08 13:24 51.05016 1.08739 35298 ft 230 kts 317°
2026-05-08 13:24 51.06218 1.07060 35215 ft 230 kts 321°
2026-05-08 13:24 51.07515 1.05563 35144 ft 230 kts 324°
2026-05-08 13:24 51.08795 1.04152 35112 ft 229 kts 323°
2026-05-08 13:25 51.10099 1.02714 35085 ft 227 kts 323°
2026-05-08 13:25 51.11394 1.01283 35020 ft 226 kts 323°
2026-05-08 13:25 51.12707 0.99834 34851 ft 232 kts 324°
2026-05-08 13:25 51.14052 0.98350 34737 ft 238 kts 324°
2026-05-08 13:26 51.15430 0.96831 34645 ft 244 kts 324°
2026-05-08 13:26 51.16851 0.95262 34590 ft 253 kts 324°
2026-05-08 13:26 51.18321 0.93638 34543 ft 262 kts 324°
2026-05-08 13:26 51.19846 0.91953 34517 ft 271 kts 324°
2026-05-08 13:27 51.21426 0.90206 34498 ft 281 kts 324°
2026-05-08 13:27 51.23063 0.88393 34489 ft 292 kts 324°
2026-05-08 13:27 51.26513 0.84568 34486 ft 312 kts 324°
2026-05-08 13:28 51.28324 0.82555 34490 ft 323 kts 324°
2026-05-08 13:28 51.30189 0.80483 34612 ft 329 kts 324°
2026-05-08 13:28 51.32078 0.78381 34854 ft 333 kts 323°
2026-05-08 13:28 51.34020 0.76219 35041 ft 338 kts 323°
2026-05-08 13:29 51.35936 0.74083 35246 ft 341 kts 323°
2026-05-08 13:29 51.37919 0.71870 35440 ft 346 kts 323°
2026-05-08 13:29 51.39900 0.69656 35640 ft 349 kts 323°
2026-05-08 13:29 51.41904 0.67414 35831 ft 353 kts 323°
2026-05-08 13:30 51.43926 0.65150 36043 ft 356 kts 323°
2026-05-08 13:30 51.45965 0.62864 36238 ft 360 kts 323°
2026-05-08 13:30 51.48024 0.60553 36452 ft 362 kts 323°
2026-05-08 13:30 51.50096 0.58224 36651 ft 365 kts 323°
2026-05-08 13:31 51.52191 0.55867 36866 ft 367 kts 323°
2026-05-08 13:31 51.54283 0.53510 37083 ft 370 kts 322°
2026-05-08 13:31 51.56397 0.51125 37285 ft 372 kts 322°
2026-05-08 13:31 51.58519 0.48728 37512 ft 374 kts 322°
2026-05-08 13:32 51.60650 0.46320 37715 ft 376 kts 322°
2026-05-08 13:32 51.62793 0.43894 37950 ft 377 kts 322°
2026-05-08 13:32 51.64941 0.41459 38164 ft 379 kts 322°
2026-05-08 13:32 51.67095 0.39015 38389 ft 379 kts 322°
2026-05-08 13:33 51.69257 0.36558 38620 ft 380 kts 322°
2026-05-08 13:33 51.71421 0.34095 38823 ft 381 kts 322°
2026-05-08 13:33 51.73583 0.31634 39005 ft 381 kts 322°
2026-05-08 13:33 51.75751 0.29161 39177 ft 381 kts 322°
2026-05-08 13:34 51.77914 0.26692 39367 ft 381 kts 322°
2026-05-08 13:34 51.80091 0.24203 39539 ft 381 kts 322°
2026-05-08 13:34 51.82237 0.21747 39723 ft 380 kts 322°
2026-05-08 13:34 51.84391 0.19279 39900 ft 380 kts 322°
2026-05-08 13:35 51.86542 0.16811 40086 ft 379 kts 322°
2026-05-08 13:35 51.88689 0.14344 40259 ft 378 kts 322°
2026-05-08 13:35 51.93037 0.09338 40211 ft 389 kts 322°
2026-05-08 13:36 51.97506 0.04183 40163 ft 400 kts 322°
2026-05-08 13:36 52.02141 -0.01169 40151 ft 411 kts 323°
2026-05-08 13:37 52.07167 -0.05851 40196 ft 421 kts 329°
2026-05-08 13:37 52.12414 -0.10430 40042 ft 436 kts 329°
2026-05-08 13:38 52.17805 -0.15191 40084 ft 446 kts 329°
2026-05-08 13:38 52.23299 -0.20068 40063 ft 445 kts 329°
2026-05-08 13:39 52.28662 -0.24842 40040 ft 435 kts 328°
2026-05-08 13:39 52.33978 -0.29584 40087 ft 439 kts 329°
2026-05-08 13:40 52.39358 -0.34363 40075 ft 440 kts 329°
2026-05-08 13:40 52.44771 -0.39186 40074 ft 439 kts 329°
2026-05-08 13:41 52.50131 -0.43978 40072 ft 439 kts 328°
2026-05-08 13:41 52.55482 -0.48774 40081 ft 439 kts 328°
2026-05-08 13:42 52.60840 -0.53593 40078 ft 439 kts 328°
2026-05-08 13:42 52.66194 -0.58420 40075 ft 439 kts 328°
2026-05-08 13:43 52.70679 -0.62474 40079 ft 439 kts 328°
2026-05-08 13:43 52.76036 -0.67329 40082 ft 439 kts 328°
2026-05-08 13:44 52.81389 -0.72194 40101 ft 439 kts 328°
2026-05-08 13:44 52.86731 -0.77064 40105 ft 439 kts 328°
2026-05-08 13:45 52.92117 -0.81988 40099 ft 439 kts 328°
2026-05-08 13:45 52.97457 -0.86884 40100 ft 439 kts 328°
2026-05-08 13:46 53.02836 -0.91828 40098 ft 438 kts 328°
2026-05-08 13:46 53.08151 -0.96719 40091 ft 439 kts 328°
2026-05-08 13:47 53.13501 -1.01656 40097 ft 439 kts 328°
2026-05-08 13:47 53.18837 -1.06595 40099 ft 438 kts 328°
2026-05-08 13:48 53.24170 -1.11545 40099 ft 438 kts 328°
2026-05-08 13:48 53.29497 -1.16503 40101 ft 438 kts 328°
2026-05-08 13:49 53.34786 -1.21441 40097 ft 438 kts 328°
2026-05-08 13:49 53.40090 -1.26381 40049 ft 430 kts 332°
2026-05-08 13:50 53.42942 -1.28052 39730 ft 433 kts 348°
2026-05-08 13:50 53.45955 -1.28574 39423 ft 432 kts 352°
2026-05-08 13:50 53.48930 -1.28899 39121 ft 430 kts 352°
2026-05-08 13:50 53.51919 -1.29224 38657 ft 431 kts 352°
2026-05-08 13:51 53.54948 -1.29564 38079 ft 429 kts 352°
2026-05-08 13:51 53.57837 -1.30106 37523 ft 422 kts 341°
2026-05-08 13:51 53.60532 -1.31913 37003 ft 410 kts 326°
2026-05-08 13:51 53.63015 -1.34384 36456 ft 408 kts 324°
2026-05-08 13:52 53.65436 -1.36874 35881 ft 408 kts 324°
2026-05-08 13:52 53.67851 -1.39332 35244 ft 408 kts 324°
2026-05-08 13:52 53.70292 -1.41803 34551 ft 405 kts 324°
2026-05-08 13:52 53.72696 -1.44237 33851 ft 401 kts 324°
2026-05-08 13:53 53.75072 -1.46652 33083 ft 396 kts 324°
2026-05-08 13:53 53.77429 -1.49056 32325 ft 394 kts 324°
2026-05-08 13:53 53.79760 -1.51436 31612 ft 390 kts 324°
2026-05-08 13:53 53.82075 -1.53805 30893 ft 389 kts 324°
2026-05-08 13:54 53.84380 -1.56163 30219 ft 385 kts 324°
2026-05-08 13:54 53.86669 -1.58509 29409 ft 383 kts 324°
2026-05-08 13:54 53.88942 -1.60841 28644 ft 380 kts 324°
2026-05-08 13:54 53.91197 -1.63157 27864 ft 378 kts 324°
2026-05-08 13:55 53.93525 -1.65552 27121 ft 376 kts 324°
2026-05-08 13:55 53.95679 -1.67771 26409 ft 375 kts 324°
2026-05-08 13:55 54.00099 -1.72331 25127 ft 369 kts 324°
2026-05-08 13:56 54.02283 -1.74589 24503 ft 366 kts 324°
2026-05-08 13:56 54.04458 -1.76840 23906 ft 364 kts 325°
2026-05-08 13:56 54.06618 -1.79075 23279 ft 361 kts 325°
2026-05-08 13:56 54.08752 -1.81286 22638 ft 358 kts 325°
2026-05-08 13:57 54.10872 -1.83484 21994 ft 355 kts 324°
2026-05-08 13:57 54.13008 -1.85582 21347 ft 355 kts 334°
2026-05-08 13:57 54.15443 -1.86417 20719 ft 361 kts 359°
2026-05-08 13:57 54.17923 -1.85792 20143 ft 362 kts 10°
2026-05-08 13:58 54.20372 -1.84833 19543 ft 360 kts 10°
2026-05-08 13:58 54.22808 -1.83941 18977 ft 357 kts
2026-05-08 13:58 54.25245 -1.83165 18404 ft 355 kts
2026-05-08 13:58 54.27672 -1.82425 17742 ft 354 kts
2026-05-08 13:59 54.30086 -1.81682 17114 ft 351 kts
2026-05-08 13:59 54.32490 -1.80936 16473 ft 350 kts
2026-05-08 13:59 54.34867 -1.80190 15907 ft 346 kts
2026-05-08 13:59 54.37256 -1.79437 15346 ft 343 kts
2026-05-08 14:00 54.39590 -1.78704 14806 ft 340 kts
2026-05-08 14:00 54.42008 -1.77941 14237 ft 337 kts
2026-05-08 14:00 54.44187 -1.77252 13706 ft 335 kts
2026-05-08 14:00 54.46487 -1.76524 13132 ft 331 kts
2026-05-08 14:01 54.48740 -1.75810 12614 ft 327 kts
2026-05-08 14:01 54.50970 -1.75101 12141 ft 322 kts
2026-05-08 14:01 54.53153 -1.74409 11684 ft 318 kts
2026-05-08 14:01 54.55316 -1.73720 11212 ft 314 kts
2026-05-08 14:02 54.57451 -1.73038 10755 ft 311 kts
2026-05-08 14:02 54.59601 -1.72351 10306 ft 308 kts
2026-05-08 14:02 54.61677 -1.71689 9862 ft 304 kts
2026-05-08 14:02 54.63768 -1.71019 9376 ft 302 kts
2026-05-08 14:03 54.65823 -1.70360 8888 ft 300 kts
2026-05-08 14:03 54.67860 -1.69708 8463 ft 295 kts
2026-05-08 14:03 54.69874 -1.69721 8021 ft 287 kts 342°
2026-05-08 14:03 54.71566 -1.71351 7657 ft 276 kts 315°
2026-05-08 14:04 54.72766 -1.73862 7326 ft 268 kts 303°
2026-05-08 14:04 54.73839 -1.76478 6971 ft 265 kts 304°
2026-05-08 14:04 54.74966 -1.78979 6613 ft 262 kts 307°
2026-05-08 14:04 54.76135 -1.81391 6265 ft 260 kts 309°
2026-05-08 14:05 54.77319 -1.83752 5913 ft 259 kts 309°
2026-05-08 14:05 54.78498 -1.86067 5601 ft 254 kts 309°
2026-05-08 14:05 54.79657 -1.88335 5327 ft 249 kts 309°
2026-05-08 14:05 54.80791 -1.90559 5064 ft 243 kts 309°
2026-05-08 14:06 54.81920 -1.92767 4810 ft 239 kts 309°
2026-05-08 14:06 54.83016 -1.94908 4540 ft 236 kts 309°
2026-05-08 14:06 54.84276 -1.96649 4269 ft 236 kts 335°
2026-05-08 14:06 54.85896 -1.97169 4029 ft 239 kts 356°
2026-05-08 14:07 54.87018 -1.97087 3876 ft 238 kts
2026-05-08 14:07 54.89233 -1.96816 3521 ft 238 kts
2026-05-08 14:07 54.90881 -1.96718 3264 ft 237 kts 357°
2026-05-08 14:07 54.92534 -1.96752 3029 ft 239 kts 355°
2026-05-08 14:08 54.94201 -1.96534 2798 ft 251 kts 15°
2026-05-08 14:08 54.95662 -1.94815 2523 ft 256 kts 52°
2026-05-08 14:08 54.96296 -1.91988 2256 ft 253 kts 88°
2026-05-08 14:08 54.95883 -1.89112 1990 ft 245 kts 126°
2026-05-08 14:09 54.95103 -1.87825 2068 ft 225 kts 154°
2026-05-08 14:09 54.93198 -1.87492 2079 ft 203 kts 195°
2026-05-08 14:09 54.92285 -1.87929 2068 ft 201 kts 199°
2026-05-08 14:09 54.90910 -1.88522 2017 ft 198 kts 192°
2026-05-08 14:10 54.89532 -1.88815 2009 ft 201 kts 185°
2026-05-08 14:10 54.88147 -1.88963 2016 ft 200 kts 192°
2026-05-08 14:10 54.86929 -1.89952 2035 ft 194 kts 223°
2026-05-08 14:10 54.86242 -1.91945 2026 ft 195 kts 258°
2026-05-08 14:11 54.86364 -1.94281 2056 ft 200 kts 292°
2026-05-08 14:11 54.87264 -1.96099 2196 ft 203 kts 326°
2026-05-08 14:11 54.88596 -1.96757 2358 ft 197 kts 352°
2026-05-08 14:11 54.89946 -1.96847 2338 ft 193 kts 357°
2026-05-08 14:12 54.91317 -1.96828 1904 ft 204 kts 358°
2026-05-08 14:12 54.92670 -1.96804 1953 ft 187 kts 358°
2026-05-08 14:12 54.93910 -1.96651 2107 ft 171 kts
2026-05-08 14:12 54.95028 -1.95977 1932 ft 169 kts 21°
2026-05-08 14:13 54.96050 -1.95168 2011 ft 158 kts 24°
2026-05-08 14:13 54.96952 -1.94061 2016 ft 163 kts 47°
2026-05-08 14:13 54.97518 -1.92385 2041 ft 159 kts 65°
2026-05-08 14:13 54.97950 -1.90572 2063 ft 160 kts 69°
2026-05-08 14:14 54.98393 -1.88768 2011 ft 163 kts 65°
2026-05-08 14:14 54.98892 -1.87020 2043 ft 161 kts 62°
2026-05-08 14:14 54.99409 -1.85282 2019 ft 161 kts 63°
2026-05-08 14:14 54.99919 -1.83539 2033 ft 162 kts 63°
2026-05-08 14:15 55.00413 -1.81734 2039 ft 161 kts 64°
2026-05-08 14:15 55.00901 -1.79942 1923 ft 160 kts 64°
2026-05-08 14:15 55.01361 -1.78257 1730 ft 152 kts 66°
2026-05-08 14:15 55.01779 -1.76618 1410 ft 145 kts 66°
2026-05-08 14:16 55.02201 -1.75073 1150 ft 140 kts 65°
2026-05-08 14:16 55.02596 -1.73534 819 ft 138 kts 66°
2026-05-08 14:16 55.02991 -1.72028 580 ft 134 kts 65°
2026-05-08 14:16 55.03379 -1.70550 336 ft 133 kts 65°
2026-05-08 14:17 55.03742 -1.69177 253 ft 110 kts 66°
2026-05-08 14:17 55.03979 -1.68274 247 ft 59 kts 65°
2026-05-08 14:17 55.04137 -1.67669 245 ft 51 kts 63°
2026-05-08 14:17 55.04240 -1.67373 240 ft 14 kts 17°
2026-05-08 14:18 55.04333 -1.67391 239 ft 13 kts 342°
2026-05-08 14:18 55.04371 -1.67479 240 ft 9 kts 277°
2026-05-08 14:18 55.04360 -1.67568 241 ft 7 kts 233°
2026-05-08 14:18 55.04332 -1.67632 242 ft 6 kts 238°
2026-05-08 14:19 55.04315 -1.67697 243 ft 6 kts 246°
2026-05-08 14:19 55.04295 -1.67772 244 ft 8 kts 246°
2026-05-08 14:19 55.04263 -1.67890 246 ft 14 kts 244°
2026-05-08 14:19 55.04209 -1.68095 246 ft 21 kts 245°
2026-05-08 14:20 55.04146 -1.68334 247 ft 22 kts 244°
2026-05-08 14:20 55.04080 -1.68583 248 ft 23 kts 245°
2026-05-08 14:20 55.04010 -1.68843 249 ft 24 kts 244°
2026-05-08 14:20 55.03941 -1.69107 251 ft 25 kts 246°
2026-05-08 14:21 55.03868 -1.69379 254 ft 25 kts 245°
2026-05-08 14:21 55.03806 -1.69661 256 ft 24 kts 256°
2026-05-08 14:21 55.03776 -1.69949 259 ft 24 kts 264°
2026-05-08 14:21 55.03778 -1.70245 263 ft 24 kts 273°
2026-05-08 14:22 55.03796 -1.70468 266 ft 17 kts 275°
2026-05-08 14:22 55.03805 -1.70657 266 ft 9 kts 274°
2026-05-08 14:22 55.03801 -1.70751 266 ft 6 kts 229°
2026-05-08 14:22 55.03759 -1.70758 266 ft 6 kts 184°
2026-05-08 14:23 55.03745 -1.70760 266 ft 0 kts 184°